Regional Weather Roundup
Issued by NWS Wakefield, VA

Home | Current Version | Previous Version | Graphics & Text | Print | Product List | Glossary On
Versions: 1 2 3 4 5 6 7 8 9 10 11 12 13 14 15 16 17 18 19 20 21 22 23 24 25 26 27
000
ASUS41 KAKQ 190415
RWRAKQ

REGIONAL WEATHER ROUNDUP
NATIONAL WEATHER SERVICE WAKEFIELD VA
1100 PM EST SUN FEB 18 2018

Note: "fair" indicates few or no clouds below 12,000 feet with no
significant weather and/or obstructions to visibility. * = Denotes
station may not report precipitation (e.g., rain,snow,etc.),
thunder or fog.

VAZ042-051-052>054-056-190500-
NORTHERN VIRGINIA

CITY           SKY/WX    TMP DP  RH WIND       PRES   REMARKS
WASH NATIONAL  MOCLDY    41  32  70 SE5       30.50R
DULLES         MOCLDY    38  31  76 S5        30.47S
FORT BELVOIR   FAIR      34  30  86 CALM      30.50R
QUANTICO       FAIR      42  36  79 SE6       30.51R
FREDERICKSBRG* FAIR      37  33  85 CALM      30.49R
STAFFORD*      FAIR      36  32  87 CALM      30.53R
WARRENTON      FAIR      38  28  67 SE5       30.46S
CULPEPER*      FAIR      34  30  85 CALM      30.48R
MANASSAS*      FAIR      33  29  85 S5        30.49R
LEESBURG*      CLOUDY    41  34  75 S8        30.48R
WINCHESTER     FAIR      32  27  80 CALM      30.44F
FRONT ROYAL*   FAIR      41  30  65 S3        30.41F
LURAY*         FAIR      32  30  93 NE5       30.41S
$$

VAZ048-049-060>072-079>083-190500-
CENTRAL AND SOUTH CENTRAL VIRGINIA

CITY           SKY/WX    TMP DP  RH WIND       PRES   REMARKS
RICHMOND       FAIR      39  32  76 E3        30.49R
CHESTERFIELD*  FAIR      36  31  82 CALM      30.49S
PETERSBURG*    FAIR      32  28  86 CALM      30.50S
HANOVER        FAIR      35  33  92 CALM      30.50R
TAPPAHANNOCK*  FAIR      37  33  87 MISG      30.51R
QUINTON*       FAIR      35  33  92 MISG      30.50R
CHARLOTTSVILLE CLOUDY    42  34  73 CALM      30.44S
GORDONSVILLE*  CLOUDY    36  35  95 CALM      30.45S
ORANGE*        CLOUDY    41  32  70 CALM      30.46S
LOUISA*        FAIR      39  33  78 SE7       30.50S
BUMPASS*       FAIR      39  33  79 SE3       30.47R
FARMVILLE*     FAIR      43  41  93 SE3       30.44S
CREWE*         FAIR      37  37 100 CALM      30.47R
FORT PICKETT*  FAIR      39  34  82 SE6       30.48R
CHASE CITY*    FAIR      43  38  81 SE3       30.46R
CLARKSVILLE*   FAIR      45  37  76 SE3       30.45S
SOUTH HILL*    FAIR      40  38  90 CALM      30.53R
LAWRENCEVILLE* FAIR      40  36  86 CALM      30.49R
EMPORIA*         N/A     36  32  87 CALM      30.51R
$$

VAZ088>098-190500-
SOUTHEAST VIRGINIA

CITY           SKY/WX    TMP DP  RH WIND       PRES   REMARKS
NORFOLK        FAIR      40  37  89 CALM      30.51R
VIRGINIA BEACH FAIR      39  34  82 SE3       30.51R
NORFOLK NAVAL  FAIR      39  34  82 SE5       30.53R
WEST POINT*    FAIR      36  33  88 E5        30.53R
SALUDA*        FAIR      38  38 100 SE5       30.52R
NEWPORT NEWS   FAIR      33  32  96 CALM      30.52R
LANGLEY AFB    FAIR      41  37  87 SE5       30.52R
FORT EUSTIS    FAIR      40  33  77 SE5       30.49R
WILLIAMSBURG*  FAIR      39  34  81 CALM      30.52R
HR EXEC AP*    FAIR      29  27  92 CALM      30.52R
FRANKLIN*      FAIR      35  32  89 CALM      30.52R
US460-WAKEFLD  FAIR      35  33  92 CALM      30.51R
$$

VAZ020-022-025-037-045-190500-
WEST CENTRAL AND SOUTHWEST VIRGINIA

CITY           SKY/WX    TMP DP  RH WIND       PRES   REMARKS
STAUNTON*      FAIR      35  31  85 SW3       30.42F
WAYNESBORO*    FAIR      42  35  74 S10       30.41S
HOT SPRINGS VA FAIR      36  30  78 S10       30.34R
LYNCHBURG      FAIR      41  35  79 SE3       30.42S
DANVILLE       FAIR      42  38  85 E5        30.42S
SOUTH BOSTON*  FAIR      45  37  73 SE6       30.45S
MARTINSVILLE   MOCLDY    32  31  94 CALM      30.42S
ROANOKE        FAIR      42  33  70 CALM      30.42F
BLACKSBURG     FAIR      42  30  63 E7        30.40F
DUBLIN*        FAIR      40  29  64 CALM      30.37F
MARION*        FAIR      46 -10   9 E8        30.35S
HILLSVILLE*    FAIR      42  29  58 SE6       30.34F
RICHLANDS*     FAIR      48   3  15 SE12G21   30.25R
WISE*          MOCLDY    52  36  54 S12G21    30.24R
ABINGDON*      MOCLDY    52  35  53 E9        30.28R
$$

MDZ021>025-VAZ099-100-190500-
SOUTHERN MARYLAND AND THE DELMARVA PENINSULA

CITY           SKY/WX    TMP DP  RH WIND       PRES   REMARKS
PATUXENT RIVER FAIR      39  38  96 SE6       30.51R
BAY BRIDGE APT FAIR      39  32  75 SE7       30.51S
LEONARDTOWN    FAIR      37  34  87 SE7       30.52S
DOVER          FAIR      36  32  87 CALM      30.52R
GEORGETOWN     FAIR      32  29  88 CALM      30.53R
EASTON         FAIR      37  31  77 SE6       30.55S
CAMBRIDGE      CLEAR     36  32  87 SE3       30.52S
SALISBURY      FAIR      31  30  96 CALM      30.53R
OCEAN CITY     FAIR      31  31 100 CALM      30.54R
WALLOPS ISLAND FAIR      34  32  92 CALM      30.54R
ACCOMACK*      FAIR      35  34  96 SE3       30.53R
$$

NCZ012>017-030>032-190500-
NORTH CENTRAL AND EASTERN NORTH CAROLINA

CITY           SKY/WX    TMP DP  RH WIND       PRES   REMARKS
ROANOKE RAPIDS FAIR      41  36  81 CALM      30.50R
RALEIGH        FAIR      47  38  71 SE8       30.44R
ELIZABETH CITY FAIR      42  38  85 E8        30.51R
AHOSKIE*       FAIR      37  35  93 CALM      30.50R
EDENTON*       FAIR      43  38  82 E5        30.51R
CURRITUCK*     NOT AVBL
KILL DEVIL HLS FAIR      43  37  80 CALM      30.48S
MANTEO         FAIR      44  37  77 E9        30.50S
CAPE HATTERAS  FAIR      47  40  76 NE8G16    30.46F
TARBORO*       NOT AVBL
GOLDSBORO      CLOUDY    48  37  65 E10       30.45R
WASHINGTON     FAIR      40  35  81 E5        30.49R
GREENVILLE     MOCLDY    43  34  70 E7        30.48S
NEW BERN       CLOUDY    46  39  76 E7        30.48S
WILMINGTON     CLOUDY    50  40  68 E13G20    30.43R
$$

VAZ048-190500-
ELSEWHERE

CITY           SKY/WX    TMP DP  RH WIND       PRES   REMARKS
HARRISBURG PA  FAIR      29  25  85 SE7       30.45S
BALTIMORE      FAIR      36  31  82 E5        30.49R
ANNAPOLIS      FAIR      37  34  89 CALM      30.50R
ANDREWS AFB    CLEAR     37  30  77 SE7       30.48R
PHILADELPHIA   FAIR      34  28  79 E3        30.51R
HENDERSON NC   FAIR      42  35  76 SE8       30.45S
GREENSBORO     CLOUDY    48  36  63 SE7       30.38S
ROCKY MOUNT    FAIR      43  34  70 CALM      30.48R
$$

VAZ100-190500-
MARINE

STATION/POSITION TIME  TEMP    WIND        PRES    WAVE   SWELL
                       AIR SEA DIR/SP/G            HT/PER HT/PER
                 (UTC) (F)     (DEG/KT/KT) (MB)    (FT/S) (FT/S)
BRANDYWINE LGT   0342   42     120/  5/  6 1034.0R
CAPE MAY NJ      0348   35 41  100/  3/  3 1033.5R
LEWES DE         0342   39 43  130/  3/  4 1033.6R
15NM E FENWICK I 0350   43 43   60/  4/  6 1034.1R   1/ 9   2/ 9
OCEAN-CITY-INLET 0342   40 41   CALM  /  2 1034.0R
WACHAPREAGUE VA  0342   42 47  140/  4/  5 1033.8R
THOMAS POINT MD  0400   39 38  130/  3/  3   N/A
GOOSES REEF MD   0400   40 38  180/  8/  8 1033.6
COVE POINT MD    0342   40     180/  9/ 10 1033.7R
SOLOMONS ISLAND  0342   40 40  160/  8/  9 1033.0R
BISHOPS HEAD MD  0342   41 44  130/ 10/ 11 1033.6R
POTOMAC MD       0400   40 41   10/ 12/ 14 1032.9    2/ 2
CAMBRIDGE MD     0342   38 44              1034.0R
LEWISETTA VA     0342   40 43  160/  8/  9 1033.3R
RAPPAHANNOCK LGT 0342          130/  6/  7 1034.3R
STINGRAY PT      0400   40     180/  8/  8 1033.3
YORK RVR RNG VA  0342   42     150/  7/  8 1033.9R
YORKTOWN VA      0342   40 45  130/  3/  4 1033.0R
DOMINION TERM VA 0342   44     130/ 10/ 12 1033.4R
KIPTOPEKE VA     0342      43  130/  6/  7   N/A
CAPE HENRY VA    0342   43     120/  8/ 10   N/A
S CRANEY ISL VA  0342   42     140/  6/  8 1033.1R
CAPE HENRY BUOY  0400      43                N/A     2/ 6
1ST LANDING BUOY 0400   42 42  140/  8/ 10 1033.3    1/ 2
CAPE CHARLES BUO 0321      43                N/A     2/ 5
64NM E OF VA BCH 0350   47 50   90/ 12/ 16 1033.3S   3/ 6   2/ 6
DUCK PIER NC     0342   45 45   80/ 11/ 12 1032.4S
44100 DUCK FRF   0345      44                N/A     3/ 5
44056 DUCK FRF   0400      44                N/A     3/ 6
OREGON INLET NC  0342   45 48   40/  7/  9 1032.4R
HATTERAS NC      0342   48 56   50/ 10/ 16 1031.4R
DIAMOND SHLS NC  0350   54 72   20/ 17/ 21 1031.3S   6/ 9   3/ 9
CAPE LOOKOUT NC  0400           40/ 19/ 21 1030.9S
$$




USA.gov is the U.S. government's official web portal to all federal, state and local government web resources and services.